Content
SEND FEEDBACK

United States of America Flag

FAYETTEVILLE, TENNESSEE


Home > North America > United States > Tennessee
Elevation: 700 feet     Latitude: 35 10N     Longitude: 086 33W

WEATHER
 
SELECT A DAY
Number of Records: 340,776;   Date Range: 4/22/02 - 3/22/16
 
SHARE

PRINT THIS DATA

[ ← Previous Day ]
WEATHER ALMANAC - JANUARY 22, 2014
[ Next Day → ]
[ °C ]   °F
Weather ElementAverageHighLow
Temperature22.6 °F32 °F (1:35 pm)14 °F (6:35 am)
Dewpoint4.3 °F14 °F (8:35 pm)-7.6 °F (1:35 pm)
Humidity50 %80 % (10:15 pm)18 % (1:35 pm)
Barometer30.16 in30.21 in (8:35 am)30.08 in (1:35 pm)
Wind Speed2.8 mph12.7 mph (12:35 am)
Weather ElementAverage
Visibility10 mi
Wind DirectionESE (114.6 °)

Weather ElementTotal
Precipitation---
Heating Degree Days42 (Base 65)
Averaged from 70 records on January 22, 2014
WEATHER CONDITIONS BREAKOUT
WIND DIRECTION BREAKOUT
WEATHER BY HOUR - JANUARY 22, 2014
[ °C ]   °F
Local TimeTemperatureDewpointHumidityBarometerVisibilityWind DirectionWind SpeedGust SpeedPrecipitationEventsConditions
12:35 AM17.6 °F6.8 °F63 %30.17 in10.0 miNorth (350°)12.7 mphClear
12:55 AM17.6 °F6.8 °F63 %30.16 in10.0 miNNW (330°)10.4 mphClear
1:15 AM17.6 °F6.8 °F63 %30.17 in10.0 miNNW (340°)10.4 mphClear
1:35 AM17.6 °F6.8 °F63 %30.17 in10.0 miNNW (330°)10.4 mphClear
1:55 AM17.6 °F6.8 °F63 %30.17 in10.0 miNorth (350°)9.2 mphClear
2:15 AM17.6 °F6.8 °F63 %30.17 in10.0 miNorth (350°)8.1 mphClear
2:35 AM17.6 °F5.0 °F58 %30.15 in10.0 miNorth (360°)8.1 mphClear
2:55 AM17.6 °F6.8 °F63 %30.15 in10.0 miNorth (360°)8.1 mphScattered Clouds
3:15 AM17.6 °F6.8 °F63 %30.17 in10.0 miNorth (350°)10.4 mphMostly Cloudy
3:55 AM15.8 °F5.0 °F62 %30.18 in10.0 miNorth (360°)6.9 mphClear
4:15 AM15.8 °F6.8 °F68 %30.19 in10.0 miCalmScattered Clouds
4:35 AM15.8 °F6.8 °F68 %30.18 in10.0 miNorth (360°)8.1 mphMostly Cloudy
4:55 AM15.8 °F6.8 °F68 %30.18 in10.0 miCalmOvercast
5:15 AM15.8 °F5.0 °F62 %30.18 in10.0 miCalmMostly Cloudy
5:35 AM15.8 °F5.0 °F62 %30.18 in10.0 miCalmOvercast
5:55 AM15.8 °F5.0 °F62 %30.18 in10.0 miCalmOvercast
6:15 AM15.8 °F5.0 °F62 %30.18 in10.0 miCalmMostly Cloudy
6:35 AM14.0 °F5.0 °F67 %30.19 in10.0 miCalmScattered Clouds
6:55 AM14.0 °F5.0 °F67 %30.19 in10.0 miCalmClear
7:15 AM14.0 °F5.0 °F67 %30.18 in10.0 miCalmClear
7:35 AM14.0 °F5.0 °F67 %30.19 in10.0 miCalmClear
7:55 AM15.8 °F5.0 °F62 %30.19 in10.0 miCalmClear
8:15 AM17.6 °F5.0 °F58 %30.19 in10.0 miCalmClear
8:35 AM17.6 °F3.2 °F53 %30.21 in10.0 miCalmClear
8:55 AM17.6 °F3.2 °F53 %30.21 in10.0 miCalmClear
9:15 AM19.4 °F3.2 °F49 %30.20 in10.0 miCalmClear
9:35 AM19.4 °F3.2 °F49 %30.20 in10.0 miCalmClear
9:55 AM21.2 °F3.2 °F46 %30.20 in10.0 miCalmClear
10:15 AM21.2 °F1.4 °F42 %30.20 in10.0 miCalmClear
10:35 AM21.2 °F1.4 °F42 %30.20 in10.0 miCalmClear
10:55 AM23.0 °F1.4 °F39 %30.18 in10.0 miCalmClear
11:15 AM24.8 °F1.4 °F36 %30.17 in10.0 miCalmScattered Clouds
11:35 AM26.6 °F1.4 °F34 %30.15 in10.0 miCalmScattered Clouds
11:55 AM26.6 °F-0.4 °F31 %30.14 in10.0 miWest (260°)3.5 mphClear
12:15 PM28.4 °F-0.4 °F29 %30.14 in10.0 miWest (280°)5.8 mphClear
12:35 PM30.2 °F-2.2 °F25 %30.12 in10.0 miWSW (250°)6.9 mphClear
12:55 PM30.2 °F-4.0 °F23 %30.10 in10.0 miWSW (250°)4.6 mphClear
1:15 PM30.2 °F-5.8 °F21 %30.09 in10.0 miCalmScattered Clouds
1:35 PM32.0 °F-7.6 °F18 %30.08 in10.0 miSW (230°)3.5 mphMostly Cloudy
1:55 PM32.0 °F-7.6 °F18 %30.08 in10.0 miWNW (290°)5.8 mphClear
2:15 PM32.0 °F-7.6 °F18 %30.08 in10.0 miWNW (290°)6.9 mphClear
2:35 PM32.0 °F-5.8 °F20 %30.09 in10.0 miWSW (250°)6.9 mphClear
2:55 PM32.0 °F-5.8 °F20 %30.09 in10.0 miWest (260°)8.1 mphClear
3:15 PM32.0 °F-4.0 °F21 %30.08 in10.0 miWest (260°)8.1 mphClear
3:35 PM32.0 °F-5.8 °F20 %30.08 in10.0 miSW (230°)6.9 mphClear
3:55 PM32.0 °F-4.0 °F21 %30.09 in10.0 miSW (230°)6.9 mphClear
4:15 PM32.0 °F-4.0 °F21 %30.10 in10.0 miWest (270°)8.1 mphClear
4:35 PM32.0 °F-4.0 °F21 %30.11 in10.0 miWest (280°)4.6 mphClear
4:55 PM32.0 °F-2.2 °F23 %30.12 in10.0 miWest (270°)3.5 mphClear
5:15 PM32.0 °F-2.2 °F23 %30.12 in10.0 miWest (280°)3.5 mphClear
5:35 PM30.2 °F-2.2 °F25 %30.12 in10.0 miCalmClear
5:55 PM30.2 °F1.4 °F29 %30.13 in10.0 miCalmClear
6:15 PM28.4 °F6.8 °F40 %30.14 in10.0 miCalmClear
6:35 PM26.6 °F10.4 °F51 %30.14 in10.0 miCalmClear
6:55 PM24.8 °F12.2 °F59 %30.15 in10.0 miCalmClear
7:15 PM26.6 °F8.6 °F47 %30.14 in10.0 miCalmScattered Clouds
7:35 PM24.8 °F10.4 °F54 %30.15 in10.0 miCalmScattered Clouds
7:55 PM24.8 °F8.6 °F50 %30.17 in10.0 miCalmClear
8:15 PM23.0 °F12.2 °F63 %30.17 in10.0 miCalmClear
8:35 PM21.2 °F14.0 °F74 %30.17 in10.0 miCalmClear
8:55 PM23.0 °F12.2 °F63 %30.18 in10.0 miCalmClear
9:15 PM23.0 °F12.2 °F63 %30.19 in10.0 miCalmClear
9:35 PM21.2 °F12.2 °F68 %30.19 in10.0 miCalmClear
9:55 PM21.2 °F12.2 °F68 %30.19 in10.0 miCalmClear
10:15 PM19.4 °F14.0 °F80 %30.19 in10.0 miCalmClear
10:35 PM21.2 °F14.0 °F74 %30.19 in10.0 miCalmClear
10:55 PM21.2 °F14.0 °F74 %30.19 in10.0 miCalmClear
11:15 PM19.4 °F14.0 °F80 %30.19 in10.0 miCalmClear
11:35 PM19.4 °F14.0 °F80 %30.19 in10.0 miCalmClear
11:55 PM19.4 °F14.0 °F80 %30.20 in10.0 miCalmClear
Hourly data recorded from KMDQ, located miles away from Fayetteville, Tennessee




STORIES FROM OUR PARTNERS